Regional Weather Roundup
Issued by NWS State College, PA

Home | Current Version | Previous Version | Graphics & Text | Print | Product List | Glossary On
Versions: 1 2 3 4 5 6 7 8 9 10 11 12 13 14 15 16 17 18 19 20 21 22 23 24 25 26 27 28 29 30 31 32 33 34 35 36 37 38 39 40 41 42 43 44 45 46 47 48 49 50
000
ASUS41 KCTP 210103
RWRCTP

REGIONAL WEATHER ROUNDUP
NATIONAL WEATHER SERVICE STATE COLLEGE PA
900 PM EDT SAT SEP 20 2014

Note: "fair" indicates few or no clouds below 12,000 feet with no
significant weather and/or obstructions to visibility.

* = STATION THAT DOES NOT REPORT PRECIPITATION /E.G. RAIN...SNOW...ETC/
    THUNDER OR FOG.

PAZ002>004-007>009-013>016-020>023-029>032-210200-
WESTERN PENNSYLVANIA

CITY           SKY/WX    TMP DP  RH WIND       PRES   REMARKS
ERIE           PTCLDY    72  60  66 S14       29.87S
MEADVILLE      PTCLDY    68  60  75 VRB6      29.94R
FRANKLIN*      CLEAR     66  57  72 S10G16    29.97S
NEW CASTLE     NOT AVBL
BEAVER COUNTY  NOT AVBL
BUTLER*        CLEAR     70  59  68 S6        30.00R
PITTSBURGH INT PTCLDY    71  61  70 S6        29.97R
PITTSBURGH     CLEAR     70  59  68 S7        29.99R
INDIANA*       PTCLDY    68  61  77 SE3       30.03R
LATROBE        CLEAR     68  63  83 SW6       30.00R
WASHINGTON CO* CLEAR     64  61  88 S5        30.00R
$$

PAZ004>006-010>012-017>019-024>028-033>037-041-042-045-046-049>053-210200-
CENTRAL PENNSYLVANIA

CITY           SKY/WX    TMP DP  RH WIND       PRES   REMARKS
BRADFORD       CLOUDY    66  58  75 VRB6      29.98R
DUBOIS         CLEAR     66  59  78 VRB6      29.99R
CLEARFIELD     CLOUDY    67  58  72 CALM      30.01R
JOHNSTOWN      CLEAR     65  54  67 S10       30.04R
ALTOONA        CLEAR     68  57  68 S8        30.04R
STATE COLLEGE  PTCLDY    68  57  68 S6        30.02R
WILLIAMSPORT   CLEAR     72  56  57 S24G32    29.98S
SELINSGROVE    CLEAR     69  56  62 S7        30.03R
FT INDIANTOWN  CLEAR     63  61  93 N1        30.07R
CAPITAL CITY   CLEAR     68  56  65 SE6       30.05S
HARRISBURG     PTCLDY    71  60  68 SE9       30.05R
YORK           CLEAR     65  57  75 CALM      30.06R
$$

PAZ038>040-043-044-047-048-054-055-060>062-067>071-210200-
EASTERN PENNSYLVANIA

CITY           SKY/WX    TMP DP  RH WIND       PRES   REMARKS
SCRANTON       CLEAR     67  55  65 CALM      30.05S
MOUNT POCONO   PTCLDY    62  56  80 SE10      30.11S
ALLENTOWN      CLEAR     69  57  65 SE5       30.09R
QUAKERTOWN*    CLEAR     66  57  72 S3        30.10S
READING        CLEAR     68  58  70 SE6       30.07R
LANCASTER      CLEAR     64  58  80 E6        30.07S
COATESVILLE    CLEAR     64  61  88 SE6       30.10F
POTTSTOWN      CLEAR     67  58  72 CALM      30.10S
BLUE BELL      CLEAR     68  59  73 SE3       30.10S
DOYLESTOWN     CLEAR     66  58  75 SE7       30.10S
WILLOW GROVE   NOT AVBL
NORTH PHILA    PTCLDY    69  59  70 SE5       30.12S
PHILADELPHIA   CLEAR     69  61  75 SE5       30.10F
$$


USA.gov is the U.S. government's official web portal to all federal, state and local government web resources and services.